Location: Haliburton Scout Reserve
(45.0900°N, 78.3200°W)
Time: 03:32:59
(UTC-04:00)

ITAMSAT 1 - Visible Passes

Search period start: 23 September 2023 00:00
Search period end: 03 October 2023 00:00
Orbit: 782 x 796 km, 98.8° (Epoch: 22 September)

Date Brightness Start Highest point End Pass type
(mag) Time Alt. Az. Time Alt. Az. Time Alt. Az.
23 Sep 7.6 20:54:43 28° SSE 20:57:24 68° ENE 21:02:34 10° N visible
23 Sep 10.0 22:35:26 14° WSW 22:37:19 17° W 22:40:36 10° NW visible
24 Sep 8.2 20:24:47 20° ESE 20:27:48 38° ENE 20:32:34 10° N visible
24 Sep 9.2 22:05:30 24° SW 22:07:17 30° W 22:11:51 10° NW visible
25 Sep 8.9 19:54:50 12° ESE 19:58:21 22° ENE 20:02:15 10° NNE visible
25 Sep 8.2 21:35:34 37° SSW 21:37:23 55° W 21:42:30 10° NNW visible
26 Sep 7.5 21:05:38 39° SSE 21:07:37 82° ENE 21:12:49 10° NNW visible
26 Sep 10.2 22:46:21 12° WSW 22:47:41 13° W 22:50:11 10° WNW visible
27 Sep 8.0 20:35:41 28° ESE 20:37:59 45° ENE 20:42:54 10° N visible
27 Sep 9.5 22:16:25 23° WSW 22:17:36 25° W 22:21:50 10° NW visible
28 Sep 8.7 20:05:45 17° ESE 20:08:29 26° ENE 20:12:43 10° N visible
28 Sep 8.5 21:46:28 39° SW 21:47:40 45° W 21:52:38 10° NNW visible
29 Sep 9.3 19:36:07 10° E 19:39:04 16° ENE 19:42:03 10° NNE visible
29 Sep 7.6 21:16:32 52° S 21:17:51 83° WSW 21:23:03 10° NNW visible
29 Sep 10.4 22:57:15 10° W 22:58:04 11° W 22:59:10 10° WNW visible
30 Sep 7.7 20:46:36 40° ESE 20:48:09 55° ENE 20:53:13 10° N visible
30 Sep 9.7 22:27:19 20° WSW 22:27:56 20° W 22:31:45 10° NW visible
01 Oct 8.4 20:16:40 24° ESE 20:18:36 31° ENE 20:23:07 10° N visible
01 Oct 8.8 21:57:23 36° WSW 21:57:56 37° W 22:02:44 10° NNW visible
02 Oct 9.1 19:46:43 14° E 19:49:11 19° ENE 19:52:39 10° NNE visible
02 Oct 7.8 21:27:26 61° SW 21:28:05 68° WSW 21:33:15 10° NNW visible
